Year,Month,Day,Hour,Minute,Value (Times are PST for temperature in C)
2008,04,02,00,00,0.30
2008,04,02,00,01,0.30
2008,04,02,00,02,0.30
2008,04,02,00,03,0.30
2008,04,02,00,04,0.30
2008,04,02,00,05,0.30
2008,04,02,00,06,0.20
2008,04,02,00,07,0.20
2008,04,02,00,08,0.20
2008,04,02,00,09,0.20
2008,04,02,00,10,0.20
2008,04,02,00,11,0.10
2008,04,02,00,12,0.10
2008,04,02,00,13,0.10
2008,04,02,00,14,0.10
2008,04,02,00,15,0.00
2008,04,02,00,16,0.00
2008,04,02,00,17,0.00
2008,04,02,00,18,-0.10
2008,04,02,00,19,-0.10
2008,04,02,00,20,-0.10
2008,04,02,00,21,-0.20
2008,04,02,00,22,-0.20
2008,04,02,00,23,-0.20
2008,04,02,00,24,-0.30
2008,04,02,00,25,-0.30
2008,04,02,00,26,-0.30
2008,04,02,00,27,-0.30
2008,04,02,00,28,-0.40
2008,04,02,00,29,-0.40
2008,04,02,00,30,-0.40
2008,04,02,00,31,-0.40
2008,04,02,00,32,-0.40
2008,04,02,00,33,-0.40
2008,04,02,00,34,-0.50
2008,04,02,00,35,-0.50
2008,04,02,00,36,-0.50
2008,04,02,00,37,-0.50
2008,04,02,00,38,-0.60
2008,04,02,00,39,-0.60
2008,04,02,00,40,-0.60
2008,04,02,00,41,-0.60
2008,04,02,00,42,-0.60
2008,04,02,00,43,-0.60
2008,04,02,00,44,-0.60
2008,04,02,00,45,-0.60
2008,04,02,00,46,-0.60
2008,04,02,00,47,-0.60
2008,04,02,00,48,-0.60
2008,04,02,00,49,-0.60
2008,04,02,00,50,-0.50
2008,04,02,00,51,-0.40
2008,04,02,00,52,-0.40
2008,04,02,00,53,-0.30
2008,04,02,00,54,-0.20
2008,04,02,00,55,-0.10
2008,04,02,00,56,0.00
2008,04,02,00,57,0.00
2008,04,02,00,58,0.10
2008,04,02,00,59,0.20
2008,04,02,01,00,0.30
2008,04,02,01,01,0.40
2008,04,02,01,02,0.40
2008,04,02,01,03,0.50
2008,04,02,01,04,0.60
2008,04,02,01,05,0.60
2008,04,02,01,06,0.70
2008,04,02,01,07,0.70
2008,04,02,01,08,0.70
2008,04,02,01,09,0.70
2008,04,02,01,10,0.80
2008,04,02,01,11,0.80
2008,04,02,01,12,0.80
2008,04,02,01,13,0.80
2008,04,02,01,14,0.80
2008,04,02,01,15,0.80
2008,04,02,01,16,0.80
2008,04,02,01,17,0.80
2008,04,02,01,18,0.80
2008,04,02,01,19,0.70
2008,04,02,01,20,0.70
2008,04,02,01,21,0.70
2008,04,02,01,22,0.60
2008,04,02,01,23,0.60
2008,04,02,01,24,0.50
2008,04,02,01,25,0.50
2008,04,02,01,26,0.50
2008,04,02,01,27,0.50
2008,04,02,01,28,0.50
2008,04,02,01,29,0.50
2008,04,02,01,30,0.60
2008,04,02,01,31,0.60
2008,04,02,01,32,0.60
2008,04,02,01,33,0.60
2008,04,02,01,34,0.60
2008,04,02,01,35,0.70
2008,04,02,01,36,0.70
2008,04,02,01,37,0.70
2008,04,02,01,38,0.70
2008,04,02,01,39,0.70
2008,04,02,01,40,0.70
2008,04,02,01,41,0.80
2008,04,02,01,42,0.80
2008,04,02,01,43,0.80
2008,04,02,01,44,0.80
2008,04,02,01,45,0.80
2008,04,02,01,46,0.80
2008,04,02,01,47,0.90
2008,04,02,01,48,0.90
2008,04,02,01,49,0.90
2008,04,02,01,50,0.90
2008,04,02,01,51,0.90
2008,04,02,01,52,0.90
2008,04,02,01,53,0.90
2008,04,02,01,54,0.90
2008,04,02,01,55,0.90
2008,04,02,01,56,0.90
2008,04,02,01,57,1.00
2008,04,02,01,58,1.00
2008,04,02,01,59,1.00
2008,04,02,02,00,1.00
2008,04,02,02,01,1.00
2008,04,02,02,02,1.00
2008,04,02,02,03,1.00
2008,04,02,02,04,0.90
2008,04,02,02,05,0.90
2008,04,02,02,06,0.90
2008,04,02,02,07,0.90
2008,04,02,02,08,0.90
2008,04,02,02,09,0.90
2008,04,02,02,10,0.90
2008,04,02,02,11,0.80
2008,04,02,02,12,0.80
2008,04,02,02,13,0.80
2008,04,02,02,14,0.80
2008,04,02,02,15,0.70
2008,04,02,02,16,0.70
2008,04,02,02,17,0.70
2008,04,02,02,18,0.70
2008,04,02,02,19,0.70
2008,04,02,02,20,0.60
2008,04,02,02,21,0.60
2008,04,02,02,22,0.60
2008,04,02,02,23,0.60
2008,04,02,02,24,0.60
2008,04,02,02,25,0.50
2008,04,02,02,26,0.50
2008,04,02,02,27,0.50
2008,04,02,02,28,0.40
2008,04,02,02,29,0.40
2008,04,02,02,30,0.40
2008,04,02,02,31,0.40
2008,04,02,02,32,0.40
2008,04,02,02,33,0.40
2008,04,02,02,34,0.30
2008,04,02,02,35,0.30
2008,04,02,02,36,0.30
2008,04,02,02,37,0.40
2008,04,02,02,38,0.40
2008,04,02,02,39,0.40
2008,04,02,02,40,0.40
2008,04,02,02,41,0.50
2008,04,02,02,42,0.50
2008,04,02,02,43,0.60
2008,04,02,02,44,0.60
2008,04,02,02,45,0.60
2008,04,02,02,46,0.70
2008,04,02,02,47,0.70
2008,04,02,02,48,0.70
2008,04,02,02,49,0.80
2008,04,02,02,50,0.80
2008,04,02,02,51,0.80
2008,04,02,02,52,0.90
2008,04,02,02,53,0.90
2008,04,02,02,54,0.90
2008,04,02,02,55,0.90
2008,04,02,02,56,0.90
2008,04,02,02,57,0.90
2008,04,02,02,58,0.90
2008,04,02,02,59,0.90
2008,04,02,03,00,0.90
2008,04,02,03,01,0.90
2008,04,02,03,02,0.90
2008,04,02,03,03,0.90
2008,04,02,03,04,0.90
2008,04,02,03,05,0.90
2008,04,02,03,06,0.90
2008,04,02,03,07,0.90
2008,04,02,03,08,0.90
2008,04,02,03,09,0.90
2008,04,02,03,10,0.90
2008,04,02,03,11,0.80
2008,04,02,03,12,0.80
2008,04,02,03,13,0.80
2008,04,02,03,14,0.70
2008,04,02,03,15,0.70
2008,04,02,03,16,0.60
2008,04,02,03,17,0.60
2008,04,02,03,18,0.60
2008,04,02,03,19,0.50
2008,04,02,03,20,0.50
2008,04,02,03,21,0.40
2008,04,02,03,22,0.40
2008,04,02,03,23,0.40
2008,04,02,03,24,0.30
2008,04,02,03,25,0.30
2008,04,02,03,26,0.30
2008,04,02,03,27,0.30
2008,04,02,03,28,0.20
2008,04,02,03,29,0.20
2008,04,02,03,30,0.20
2008,04,02,03,31,0.10
2008,04,02,03,32,0.10
2008,04,02,03,33,0.00
2008,04,02,03,34,0.00
2008,04,02,03,35,0.00
2008,04,02,03,36,0.10
2008,04,02,03,37,0.10
2008,04,02,03,38,0.10
2008,04,02,03,39,0.20
2008,04,02,03,40,0.20
2008,04,02,03,41,0.20
2008,04,02,03,42,0.20
2008,04,02,03,43,0.20
2008,04,02,03,44,0.20
2008,04,02,03,45,0.20
2008,04,02,03,46,0.20
2008,04,02,03,47,0.20
2008,04,02,03,48,0.20
2008,04,02,03,49,0.20
2008,04,02,03,50,0.10
2008,04,02,03,51,0.10
2008,04,02,03,52,0.10
2008,04,02,03,53,0.10
2008,04,02,03,54,0.10
2008,04,02,03,55,0.00
2008,04,02,03,56,0.00
2008,04,02,03,57,0.00
2008,04,02,03,58,0.00
2008,04,02,03,59,0.00
2008,04,02,04,00,0.00
2008,04,02,04,01,0.00
2008,04,02,04,02,0.00
2008,04,02,04,03,0.00
2008,04,02,04,04,0.00
2008,04,02,04,05,-0.10
2008,04,02,04,06,-0.10
2008,04,02,04,07,-0.10
2008,04,02,04,08,-0.10
2008,04,02,04,09,-0.10
2008,04,02,04,10,-0.10
2008,04,02,04,11,-0.10
2008,04,02,04,12,-0.10
2008,04,02,04,13,0.00
2008,04,02,04,14,0.00
2008,04,02,04,15,0.10
2008,04,02,04,16,0.10
2008,04,02,04,17,0.10
2008,04,02,04,18,0.20
2008,04,02,04,19,0.20
2008,04,02,04,20,0.20
2008,04,02,04,21,0.30
2008,04,02,04,22,0.30
2008,04,02,04,23,0.40
2008,04,02,04,24,0.40
2008,04,02,04,25,0.40
2008,04,02,04,26,0.50
2008,04,02,04,27,0.50
2008,04,02,04,28,0.60
2008,04,02,04,29,0.60
2008,04,02,04,30,0.60
2008,04,02,04,31,0.60
2008,04,02,04,32,0.60
2008,04,02,04,33,0.60
2008,04,02,04,34,0.60
2008,04,02,04,35,0.50
2008,04,02,04,36,0.50
2008,04,02,04,37,0.50
2008,04,02,04,38,0.40
2008,04,02,04,39,0.40
2008,04,02,04,40,0.40
2008,04,02,04,41,0.40
2008,04,02,04,42,0.40
2008,04,02,04,43,0.40
2008,04,02,04,44,0.40
2008,04,02,04,45,0.40
2008,04,02,04,46,0.40
2008,04,02,04,47,0.40
2008,04,02,04,48,0.40
2008,04,02,04,49,0.50
2008,04,02,04,50,0.50
2008,04,02,04,51,0.60
2008,04,02,04,52,0.60
2008,04,02,04,53,0.60
2008,04,02,04,54,0.70
2008,04,02,04,55,0.70
2008,04,02,04,56,0.70
2008,04,02,04,57,0.80
2008,04,02,04,58,0.80
2008,04,02,04,59,0.80
2008,04,02,05,00,0.80
2008,04,02,05,01,0.80
2008,04,02,05,02,0.80
2008,04,02,05,03,0.80
2008,04,02,05,04,0.80
2008,04,02,05,05,0.70
2008,04,02,05,06,0.70
2008,04,02,05,07,0.70
2008,04,02,05,08,0.70
2008,04,02,05,09,0.60
2008,04,02,05,10,0.60
2008,04,02,05,11,0.60
2008,04,02,05,12,0.50
2008,04,02,05,13,0.40
2008,04,02,05,14,0.40
2008,04,02,05,15,0.40
2008,04,02,05,16,0.30
2008,04,02,05,17,0.30
2008,04,02,05,18,0.30
2008,04,02,05,19,0.40
2008,04,02,05,20,0.40
2008,04,02,05,21,0.40
2008,04,02,05,22,0.40
2008,04,02,05,23,0.40
2008,04,02,05,24,0.50
2008,04,02,05,25,0.50
2008,04,02,05,26,0.50
2008,04,02,05,27,0.50
2008,04,02,05,28,0.50
2008,04,02,05,29,0.60
2008,04,02,05,30,0.60
2008,04,02,05,31,0.60
2008,04,02,05,32,0.60
2008,04,02,05,33,0.60
2008,04,02,05,34,0.60
2008,04,02,05,35,0.50
2008,04,02,05,36,0.50
2008,04,02,05,37,0.50
2008,04,02,05,38,0.50
2008,04,02,05,39,0.50
2008,04,02,05,40,0.50
2008,04,02,05,41,0.50
2008,04,02,05,42,0.50
2008,04,02,05,43,0.50
2008,04,02,05,44,0.50
2008,04,02,05,45,0.50
2008,04,02,05,46,0.50
2008,04,02,05,47,0.60
2008,04,02,05,48,0.60
2008,04,02,05,49,0.60
2008,04,02,05,50,0.60
2008,04,02,05,51,0.60
2008,04,02,05,52,0.60
2008,04,02,05,53,0.60
2008,04,02,05,54,0.70
2008,04,02,05,55,0.70
2008,04,02,05,56,0.70
2008,04,02,05,57,0.70
2008,04,02,05,58,0.70
2008,04,02,05,59,0.80
2008,04,02,06,00,0.80
2008,04,02,06,01,0.80
2008,04,02,06,02,0.90
2008,04,02,06,03,1.00
2008,04,02,06,04,1.10
2008,04,02,06,05,1.20
2008,04,02,06,06,1.30
2008,04,02,06,07,1.30
2008,04,02,06,08,1.30
2008,04,02,06,09,1.40
2008,04,02,06,10,1.50
2008,04,02,06,11,1.60
2008,04,02,06,12,1.70
2008,04,02,06,13,1.70
2008,04,02,06,14,1.80
2008,04,02,06,15,1.80
2008,04,02,06,16,1.90
2008,04,02,06,17,1.90
2008,04,02,06,18,2.00
2008,04,02,06,19,2.00
2008,04,02,06,20,2.10
2008,04,02,06,21,2.10
2008,04,02,06,22,2.20
2008,04,02,06,23,2.20
2008,04,02,06,24,2.20
2008,04,02,06,25,2.30
2008,04,02,06,26,2.30
2008,04,02,06,27,2.30
2008,04,02,06,28,2.40
2008,04,02,06,29,2.40
2008,04,02,06,30,2.40
2008,04,02,06,31,2.50
2008,04,02,06,32,2.50
2008,04,02,06,33,2.50
2008,04,02,06,34,2.60
2008,04,02,06,35,2.60
2008,04,02,06,36,2.60
2008,04,02,06,37,2.60
2008,04,02,06,38,2.60
2008,04,02,06,39,2.60
2008,04,02,06,40,2.60
2008,04,02,06,41,2.70
2008,04,02,06,42,2.70
2008,04,02,06,43,2.70
2008,04,02,06,44,2.60
2008,04,02,06,45,2.60
2008,04,02,06,46,2.60
2008,04,02,06,47,2.60
2008,04,02,06,48,2.60
2008,04,02,06,49,2.60
2008,04,02,06,50,2.60
2008,04,02,06,51,2.60
2008,04,02,06,52,2.60
2008,04,02,06,53,2.50
2008,04,02,06,54,2.50
2008,04,02,06,55,2.50
2008,04,02,06,56,2.40
2008,04,02,06,57,2.40
2008,04,02,06,58,2.40
2008,04,02,06,59,2.40
2008,04,02,07,00,2.30
2008,04,02,07,01,2.30
2008,04,02,07,02,2.30
2008,04,02,07,03,2.20
2008,04,02,07,04,2.20
2008,04,02,07,05,2.20
2008,04,02,07,06,2.20
2008,04,02,07,07,2.10
2008,04,02,07,08,2.10
2008,04,02,07,09,2.10
2008,04,02,07,10,2.00
2008,04,02,07,11,2.00
2008,04,02,07,12,2.00
2008,04,02,07,13,1.90
2008,04,02,07,14,1.90
2008,04,02,07,15,1.80
2008,04,02,07,16,1.80
2008,04,02,07,17,1.80
2008,04,02,07,18,1.70
2008,04,02,07,19,1.70
2008,04,02,07,20,1.60
2008,04,02,07,21,1.60
2008,04,02,07,22,1.60
2008,04,02,07,23,1.50
2008,04,02,07,24,1.50
2008,04,02,07,25,1.40
2008,04,02,07,26,1.40
2008,04,02,07,27,1.30
2008,04,02,07,28,1.30
2008,04,02,07,29,1.30
2008,04,02,07,30,1.30
2008,04,02,07,31,1.30
2008,04,02,07,32,1.30
2008,04,02,07,33,1.30
2008,04,02,07,34,1.20
2008,04,02,07,35,1.20
2008,04,02,07,36,1.20
2008,04,02,07,37,1.20
2008,04,02,07,38,1.20
2008,04,02,07,39,1.20
2008,04,02,07,40,1.20
2008,04,02,07,41,1.20
2008,04,02,07,42,1.20
2008,04,02,07,43,1.20
2008,04,02,07,44,1.30
2008,04,02,07,45,1.30
2008,04,02,07,46,1.30
2008,04,02,07,47,1.30
2008,04,02,07,48,1.30
2008,04,02,07,49,1.30
2008,04,02,07,50,1.40
2008,04,02,07,51,1.40
2008,04,02,07,52,1.40
2008,04,02,07,53,1.50
2008,04,02,07,54,1.50
2008,04,02,07,55,1.60
2008,04,02,07,56,1.60
2008,04,02,07,57,1.60
2008,04,02,07,58,1.60
2008,04,02,07,59,1.60
2008,04,02,08,00,1.60
2008,04,02,08,01,1.60
2008,04,02,08,02,1.60
2008,04,02,08,03,1.70
2008,04,02,08,04,1.70
2008,04,02,08,05,1.70
2008,04,02,08,06,1.70
2008,04,02,08,07,1.70
2008,04,02,08,08,1.70
2008,04,02,08,09,1.80
2008,04,02,08,10,1.80
2008,04,02,08,11,1.80
2008,04,02,08,12,1.80
2008,04,02,08,13,1.90
2008,04,02,08,14,1.90
2008,04,02,08,15,1.90
2008,04,02,08,16,2.00
2008,04,02,08,17,2.00
2008,04,02,08,18,2.10
2008,04,02,08,19,2.10
2008,04,02,08,20,2.20
2008,04,02,08,21,2.20
2008,04,02,08,22,2.20
2008,04,02,08,23,2.30
2008,04,02,08,24,2.30
2008,04,02,08,25,2.40
2008,04,02,08,26,2.50
2008,04,02,08,27,2.50
2008,04,02,08,28,2.60
2008,04,02,08,29,2.60
2008,04,02,08,30,2.70
2008,04,02,08,31,2.70
2008,04,02,08,32,2.80
2008,04,02,08,33,2.80
2008,04,02,08,34,2.80
2008,04,02,08,35,2.90
2008,04,02,08,36,2.90
2008,04,02,08,37,3.00
2008,04,02,08,38,3.10
2008,04,02,08,39,3.10
2008,04,02,08,40,3.20
2008,04,02,08,41,3.30
2008,04,02,08,42,3.30
2008,04,02,08,43,3.40
2008,04,02,08,44,3.50
2008,04,02,08,45,3.50
2008,04,02,08,46,3.60
2008,04,02,08,47,3.70
2008,04,02,08,48,3.80
2008,04,02,08,49,3.80
2008,04,02,08,50,3.90
2008,04,02,08,51,4.00
2008,04,02,08,52,4.10
2008,04,02,08,53,4.10
2008,04,02,08,54,4.20
2008,04,02,08,55,4.20
2008,04,02,08,56,4.30
2008,04,02,08,57,4.30
2008,04,02,08,58,4.40
2008,04,02,08,59,4.40
2008,04,02,09,00,4.50
2008,04,02,09,01,4.50
2008,04,02,09,02,4.60
2008,04,02,09,03,4.60
2008,04,02,09,04,4.60
2008,04,02,09,05,4.60
2008,04,02,09,06,4.60
2008,04,02,09,07,4.70
2008,04,02,09,08,4.70
2008,04,02,09,09,4.70
2008,04,02,09,10,4.70
2008,04,02,09,11,4.70
2008,04,02,09,12,4.70
2008,04,02,09,13,4.80
2008,04,02,09,14,4.80
2008,04,02,09,15,4.80
2008,04,02,09,16,4.80
2008,04,02,09,17,4.90
2008,04,02,09,18,4.90
2008,04,02,09,19,5.00
2008,04,02,09,20,5.00
2008,04,02,09,21,5.00
2008,04,02,09,22,5.10
2008,04,02,09,23,5.10
2008,04,02,09,24,5.10
2008,04,02,09,25,5.10
2008,04,02,09,26,5.10
2008,04,02,09,27,5.10
2008,04,02,09,28,5.20
2008,04,02,09,29,5.20
2008,04,02,09,30,5.20
2008,04,02,09,31,5.20
2008,04,02,09,32,5.20
2008,04,02,09,33,5.20
2008,04,02,09,34,5.30
2008,04,02,09,35,5.30
2008,04,02,09,36,5.30
2008,04,02,09,37,5.30
2008,04,02,09,38,5.40
2008,04,02,09,39,5.40
2008,04,02,09,40,5.40
2008,04,02,09,41,5.40
2008,04,02,09,42,5.40
2008,04,02,09,43,5.40
2008,04,02,09,44,5.50
2008,04,02,09,45,5.50
2008,04,02,09,46,5.50
2008,04,02,09,47,5.60
2008,04,02,09,48,5.60
2008,04,02,09,49,5.60
2008,04,02,09,50,5.70
2008,04,02,09,51,5.70
2008,04,02,09,52,5.70
2008,04,02,09,53,5.70
2008,04,02,09,54,5.70
2008,04,02,09,55,5.70
2008,04,02,09,56,5.80
2008,04,02,09,57,5.80
2008,04,02,09,58,5.80
2008,04,02,09,59,5.80
2008,04,02,10,00,5.90
2008,04,02,10,01,5.90
2008,04,02,10,02,5.90
2008,04,02,10,03,5.90
2008,04,02,10,04,5.90
2008,04,02,10,05,6.00
2008,04,02,10,06,6.00
2008,04,02,10,07,6.10
2008,04,02,10,08,6.10
2008,04,02,10,09,6.20
2008,04,02,10,10,6.20
2008,04,02,10,11,6.30
2008,04,02,10,12,6.30
2008,04,02,10,13,6.30
2008,04,02,10,14,6.30
2008,04,02,10,15,6.30
2008,04,02,10,16,6.30
2008,04,02,10,17,6.30
2008,04,02,10,18,6.40
2008,04,02,10,19,6.40
2008,04,02,10,20,6.40
2008,04,02,10,21,6.40
2008,04,02,10,22,6.30
2008,04,02,10,23,6.40
2008,04,02,10,24,6.40
2008,04,02,10,25,6.40
2008,04,02,10,26,6.40
2008,04,02,10,27,6.40
2008,04,02,10,28,6.50
2008,04,02,10,29,6.50
2008,04,02,10,30,6.40
2008,04,02,10,31,6.40
2008,04,02,10,32,6.40
2008,04,02,10,33,6.40
2008,04,02,10,34,6.40
2008,04,02,10,35,6.30
2008,04,02,10,36,6.30
2008,04,02,10,37,6.30
2008,04,02,10,38,6.30
2008,04,02,10,39,6.30
2008,04,02,10,40,6.30
2008,04,02,10,41,6.30
2008,04,02,10,42,6.40
2008,04,02,10,43,6.50
2008,04,02,10,44,6.50
2008,04,02,10,45,6.60
2008,04,02,10,46,6.70
2008,04,02,10,47,6.90
2008,04,02,10,48,7.00
2008,04,02,10,49,7.10
2008,04,02,10,50,7.10
2008,04,02,10,51,7.10
2008,04,02,10,52,7.10
2008,04,02,10,53,7.10
2008,04,02,10,54,7.10
2008,04,02,10,55,7.10
2008,04,02,10,56,7.10
2008,04,02,10,57,7.10
2008,04,02,10,58,7.00
2008,04,02,10,59,7.00
2008,04,02,11,00,6.90
2008,04,02,11,01,6.80
2008,04,02,11,02,6.80
2008,04,02,11,03,6.80
2008,04,02,11,04,6.80
2008,04,02,11,05,6.70
2008,04,02,11,06,6.70
2008,04,02,11,07,6.70
2008,04,02,11,08,6.60
2008,04,02,11,09,6.50
2008,04,02,11,10,6.40
2008,04,02,11,11,6.30
2008,04,02,11,12,6.20
2008,04,02,11,13,6.20
2008,04,02,11,14,6.10
2008,04,02,11,15,6.10
2008,04,02,11,16,6.00
2008,04,02,11,17,6.00
2008,04,02,11,18,6.00
2008,04,02,11,19,5.90
2008,04,02,11,20,5.90
2008,04,02,11,21,5.90
2008,04,02,11,22,5.90
2008,04,02,11,23,5.90
2008,04,02,11,24,5.80
2008,04,02,11,25,5.80
2008,04,02,11,26,5.80
2008,04,02,11,27,5.80
2008,04,02,11,28,5.80
2008,04,02,11,29,5.80
2008,04,02,11,30,5.90
2008,04,02,11,31,6.00
2008,04,02,11,32,6.00
2008,04,02,11,33,6.20
2008,04,02,11,34,6.30
2008,04,02,11,35,6.40
2008,04,02,11,36,6.60
2008,04,02,11,37,6.70
2008,04,02,11,38,6.80
2008,04,02,11,39,6.80
2008,04,02,11,40,6.70
2008,04,02,11,41,6.70
2008,04,02,11,42,6.80
2008,04,02,11,43,6.90
2008,04,02,11,44,7.00
2008,04,02,11,45,7.10
2008,04,02,11,46,7.20
2008,04,02,11,47,7.40
2008,04,02,11,48,7.50
2008,04,02,11,49,7.60
2008,04,02,11,50,7.70
2008,04,02,11,51,7.70
2008,04,02,11,52,7.70
2008,04,02,11,53,7.50
2008,04,02,11,54,7.30
2008,04,02,11,55,7.20
2008,04,02,11,56,7.10
2008,04,02,11,57,7.00
2008,04,02,11,58,7.00
2008,04,02,11,59,6.90
2008,04,02,12,00,6.90
2008,04,02,12,01,6.80
2008,04,02,12,02,6.80
2008,04,02,12,03,6.80
2008,04,02,12,04,6.80
2008,04,02,12,05,6.80
2008,04,02,12,06,6.80
2008,04,02,12,07,6.80
2008,04,02,12,08,6.90
2008,04,02,12,09,6.90
2008,04,02,12,10,6.90
2008,04,02,12,11,6.90
2008,04,02,12,12,6.90
2008,04,02,12,13,6.80
2008,04,02,12,14,6.80
2008,04,02,12,15,6.80
2008,04,02,12,16,6.90
2008,04,02,12,17,6.90
2008,04,02,12,18,6.90
2008,04,02,12,19,6.90
2008,04,02,12,20,6.90
2008,04,02,12,21,6.90
2008,04,02,12,22,6.80
2008,04,02,12,23,6.70
2008,04,02,12,24,6.60
2008,04,02,12,25,6.50
2008,04,02,12,26,6.50
2008,04,02,12,27,6.40
2008,04,02,12,28,6.40
2008,04,02,12,29,6.40
2008,04,02,12,30,6.40
2008,04,02,12,31,6.40
2008,04,02,12,32,6.40
2008,04,02,12,33,6.40
2008,04,02,12,34,6.40
2008,04,02,12,35,6.40
2008,04,02,12,36,6.40
2008,04,02,12,37,6.40
2008,04,02,12,38,6.50
2008,04,02,12,39,6.50
2008,04,02,12,40,6.50
2008,04,02,12,41,6.60
2008,04,02,12,42,6.60
2008,04,02,12,43,6.60
2008,04,02,12,44,6.60
2008,04,02,12,45,6.70
2008,04,02,12,46,6.70
2008,04,02,12,47,6.70
2008,04,02,12,48,6.70
2008,04,02,12,49,6.70
2008,04,02,12,50,6.70
2008,04,02,12,51,6.70
2008,04,02,12,52,6.70
2008,04,02,12,53,6.70
2008,04,02,12,54,6.70
2008,04,02,12,55,6.80
2008,04,02,12,56,6.70
2008,04,02,12,57,6.70
2008,04,02,12,58,6.70
2008,04,02,12,59,6.70
2008,04,02,13,00,6.80
2008,04,02,13,01,6.80
2008,04,02,13,02,6.80
2008,04,02,13,03,6.80
2008,04,02,13,04,6.80
2008,04,02,13,05,6.70
2008,04,02,13,06,6.70
2008,04,02,13,07,6.70
2008,04,02,13,08,6.70
2008,04,02,13,09,6.70
2008,04,02,13,10,6.60
2008,04,02,13,11,6.60
2008,04,02,13,12,6.60
2008,04,02,13,13,6.60
2008,04,02,13,14,6.70
2008,04,02,13,15,6.70
2008,04,02,13,16,6.70
2008,04,02,13,17,6.80
2008,04,02,13,18,6.80
2008,04,02,13,19,6.80
2008,04,02,13,20,6.80
2008,04,02,13,21,6.80
2008,04,02,13,22,6.90
2008,04,02,13,23,6.90
2008,04,02,13,24,6.90
2008,04,02,13,25,7.00
2008,04,02,13,26,7.10
2008,04,02,13,27,7.10
2008,04,02,13,28,7.20
2008,04,02,13,29,7.20
2008,04,02,13,30,7.20
2008,04,02,13,31,7.20
2008,04,02,13,32,7.20
2008,04,02,13,33,7.20
2008,04,02,13,34,7.20
2008,04,02,13,35,7.20
2008,04,02,13,36,7.20
2008,04,02,13,37,7.20
2008,04,02,13,38,7.30
2008,04,02,13,39,7.40
2008,04,02,13,40,7.40
2008,04,02,13,41,7.40
2008,04,02,13,42,7.40
2008,04,02,13,43,7.40
2008,04,02,13,44,7.40
2008,04,02,13,45,7.50
2008,04,02,13,46,7.50
2008,04,02,13,47,7.40
2008,04,02,13,48,7.40
2008,04,02,13,49,7.40
2008,04,02,13,50,7.40
2008,04,02,13,51,7.30
2008,04,02,13,52,7.30
2008,04,02,13,53,7.20
2008,04,02,13,54,7.20
2008,04,02,13,55,7.20
2008,04,02,13,56,7.20
2008,04,02,13,57,7.20
2008,04,02,13,58,7.20
2008,04,02,13,59,7.20
2008,04,02,14,00,7.20
2008,04,02,14,01,7.20
2008,04,02,14,02,7.20
2008,04,02,14,03,7.30
2008,04,02,14,04,7.40
2008,04,02,14,05,7.40
2008,04,02,14,06,7.50
2008,04,02,14,07,7.50
2008,04,02,14,08,7.60
2008,04,02,14,09,7.60
2008,04,02,14,10,7.70
2008,04,02,14,11,7.80
2008,04,02,14,12,7.90
2008,04,02,14,13,7.90
2008,04,02,14,14,8.00
2008,04,02,14,15,8.10
2008,04,02,14,16,8.20
2008,04,02,14,17,8.10
2008,04,02,14,18,8.00
2008,04,02,14,19,8.00
2008,04,02,14,20,7.90
2008,04,02,14,21,7.90
2008,04,02,14,22,7.90
2008,04,02,14,23,7.90
2008,04,02,14,24,7.90
2008,04,02,14,25,8.00
2008,04,02,14,26,8.20
2008,04,02,14,27,8.30
2008,04,02,14,28,8.30
2008,04,02,14,29,8.30
2008,04,02,14,30,8.30
2008,04,02,14,31,8.10
2008,04,02,14,32,8.00
2008,04,02,14,33,7.90
2008,04,02,14,34,8.00
2008,04,02,14,35,8.10
2008,04,02,14,36,8.20
2008,04,02,14,37,8.20
2008,04,02,14,38,8.20
2008,04,02,14,39,8.20
2008,04,02,14,40,8.30
2008,04,02,14,41,8.30
2008,04,02,14,42,8.40
2008,04,02,14,43,8.40
2008,04,02,14,44,8.40
2008,04,02,14,45,8.40
2008,04,02,14,46,8.50
2008,04,02,14,47,8.60
2008,04,02,14,48,8.60
2008,04,02,14,49,8.60
2008,04,02,14,50,8.50
2008,04,02,14,51,8.50
2008,04,02,14,52,8.50
2008,04,02,14,53,8.60
2008,04,02,14,54,8.50
2008,04,02,14,55,8.30
2008,04,02,14,56,8.30
2008,04,02,14,57,8.30
2008,04,02,14,58,8.40
2008,04,02,14,59,8.40
2008,04,02,15,00,8.30
2008,04,02,15,01,8.20
2008,04,02,15,02,8.20
2008,04,02,15,03,8.20
2008,04,02,15,04,8.20
2008,04,02,15,05,8.20
2008,04,02,15,06,8.20
2008,04,02,15,07,8.10
2008,04,02,15,08,8.10
2008,04,02,15,09,8.10
2008,04,02,15,10,8.20
2008,04,02,15,11,8.20
2008,04,02,15,12,8.20
2008,04,02,15,13,8.30
2008,04,02,15,14,8.30
2008,04,02,15,15,8.40
2008,04,02,15,16,8.40
2008,04,02,15,17,8.40
2008,04,02,15,18,8.40
2008,04,02,15,19,8.50
2008,04,02,15,20,8.50
2008,04,02,15,21,8.50
2008,04,02,15,22,8.50
2008,04,02,15,23,8.40
2008,04,02,15,24,8.40
2008,04,02,15,25,8.40
2008,04,02,15,26,8.40
2008,04,02,15,27,8.40
2008,04,02,15,28,8.40
2008,04,02,15,29,8.40
2008,04,02,15,30,8.50
2008,04,02,15,31,8.50
2008,04,02,15,32,8.60
2008,04,02,15,33,8.60
2008,04,02,15,34,8.50
2008,04,02,15,35,8.50
2008,04,02,15,36,8.60
2008,04,02,15,37,8.70
2008,04,02,15,38,8.80
2008,04,02,15,39,8.90
2008,04,02,15,40,9.00
2008,04,02,15,41,9.10
2008,04,02,15,42,9.00
2008,04,02,15,43,8.80
2008,04,02,15,44,8.70
2008,04,02,15,45,8.50
2008,04,02,15,46,8.40
2008,04,02,15,47,8.40
2008,04,02,15,48,8.40
2008,04,02,15,49,8.40
2008,04,02,15,50,8.50
2008,04,02,15,51,8.60
2008,04,02,15,52,8.60
2008,04,02,15,53,8.70
2008,04,02,15,54,8.70
2008,04,02,15,55,8.70
2008,04,02,15,56,8.70
2008,04,02,15,57,8.60
2008,04,02,15,58,8.50
2008,04,02,15,59,8.40
2008,04,02,16,00,8.40
2008,04,02,16,01,8.50
2008,04,02,16,02,8.60
2008,04,02,16,03,8.60
2008,04,02,16,04,8.60
2008,04,02,16,05,8.60
2008,04,02,16,06,8.60
2008,04,02,16,07,8.60
2008,04,02,16,08,8.60
2008,04,02,16,09,8.70
2008,04,02,16,10,8.70
2008,04,02,16,11,8.80
2008,04,02,16,12,8.80
2008,04,02,16,13,8.80
2008,04,02,16,14,8.90
2008,04,02,16,15,9.00
2008,04,02,16,16,9.00
2008,04,02,16,17,9.10
2008,04,02,16,18,9.10
2008,04,02,16,19,9.10
2008,04,02,16,20,9.00
2008,04,02,16,21,8.80
2008,04,02,16,22,8.70
2008,04,02,16,23,8.70
2008,04,02,16,24,8.60
2008,04,02,16,25,8.60
2008,04,02,16,26,8.50
2008,04,02,16,27,8.50
2008,04,02,16,28,8.60
2008,04,02,16,29,8.60
2008,04,02,16,30,8.60
2008,04,02,16,31,8.50
2008,04,02,16,32,8.60
2008,04,02,16,33,8.60
2008,04,02,16,34,8.60
2008,04,02,16,35,8.60
2008,04,02,16,36,8.60
2008,04,02,16,37,8.60
2008,04,02,16,38,8.60
2008,04,02,16,39,8.60
2008,04,02,16,40,8.60
2008,04,02,16,41,8.70
2008,04,02,16,42,8.70
2008,04,02,16,43,8.70
2008,04,02,16,44,8.70
2008,04,02,16,45,8.80
2008,04,02,16,46,8.80
2008,04,02,16,47,8.90
2008,04,02,16,48,8.90
2008,04,02,16,49,9.00
2008,04,02,16,50,9.00
2008,04,02,16,51,9.00
2008,04,02,16,52,8.90
2008,04,02,16,53,8.80
2008,04,02,16,54,8.80
2008,04,02,16,55,8.80
2008,04,02,16,56,8.70
2008,04,02,16,57,8.70
2008,04,02,16,58,8.70
2008,04,02,16,59,8.70
2008,04,02,17,00,8.70
2008,04,02,17,01,8.60
2008,04,02,17,02,8.60
2008,04,02,17,03,8.60
2008,04,02,17,04,8.70
2008,04,02,17,05,8.60
2008,04,02,17,06,8.60
2008,04,02,17,07,8.60
2008,04,02,17,08,8.60
2008,04,02,17,09,8.50
2008,04,02,17,10,8.50
2008,04,02,17,11,8.50
2008,04,02,17,12,8.60
2008,04,02,17,13,8.60
2008,04,02,17,14,8.60
2008,04,02,17,15,8.60
2008,04,02,17,16,8.60
2008,04,02,17,17,8.70
2008,04,02,17,18,8.70
2008,04,02,17,19,8.80
2008,04,02,17,20,8.80
2008,04,02,17,21,8.80
2008,04,02,17,22,8.80
2008,04,02,17,23,8.80
2008,04,02,17,24,8.80
2008,04,02,17,25,8.80
2008,04,02,17,26,8.70
2008,04,02,17,27,8.70
2008,04,02,17,28,8.70
2008,04,02,17,29,8.70
2008,04,02,17,30,8.70
2008,04,02,17,31,8.70
2008,04,02,17,32,8.70
2008,04,02,17,33,8.70
2008,04,02,17,34,8.70
2008,04,02,17,35,8.70
2008,04,02,17,36,8.80
2008,04,02,17,37,8.80
2008,04,02,17,38,8.80
2008,04,02,17,39,8.70
2008,04,02,17,40,8.70
2008,04,02,17,41,8.60
2008,04,02,17,42,8.60
2008,04,02,17,43,8.60
2008,04,02,17,44,8.60
2008,04,02,17,45,8.60
2008,04,02,17,46,8.60
2008,04,02,17,47,8.70
2008,04,02,17,48,8.70
2008,04,02,17,49,8.70
2008,04,02,17,50,8.70
2008,04,02,17,51,8.70
2008,04,02,17,52,8.70
2008,04,02,17,53,8.80
2008,04,02,17,54,8.80
2008,04,02,17,55,8.80
2008,04,02,17,56,8.80
2008,04,02,17,57,8.80
2008,04,02,17,58,8.80
2008,04,02,17,59,8.70
2008,04,02,18,00,8.70
2008,04,02,18,01,8.70
2008,04,02,18,02,8.60
2008,04,02,18,03,8.70
2008,04,02,18,04,8.70